[[{"header":{"parameterUnit":"m.s-1","parameterCategory":1,"la1":30.2991,"la2":30.254,"lo1":-89.0895,"lo2":-89.0444,"dy":0.0017,"dx":0.0017,"nx":28,"ny":28,"refTime":"2026-02-09T03:00:00:Z","depth":0,"parameterNumber":2,"parameterNumberName":"U-component_of_WINDS"},"data":[0,0,0,0,0,0,0,0,0,0,0,0,0,0,0,0,0,0,0,0,0,0,0,0,0,0,0,0,0,0,0,0,0,0,0,0,0,0,0,0,0,0,0,0,0,0,0,0,0,0,0,0,0,0,0,0,0,0,0.4865,0.4865,0,0.4878,0.4878,0.4878,0.4887,0.4887,0.4887,0.4887,0.4902,0.4902,0.4903,0,0,0,0,0,0,0,0,0,0,0,0,0,0.4849,0.4849,0.4865,0.4865,0.4865,0.4878,0.4878,0.4878,0.4887,0.4887,0.4887,0.4887,0.4902,0.4902,0.4903,0,0,0,0,0,0,0,0,0,0,0,0,0,0.4859,0.485,0.4865,0.4871,0.4871,0.4878,0.4878,0.4878,0.4887,0.4887,0.4887,0.4887,0.4902,0.4902,0.4903,0.4905,0,0,0.4905,0.4905,0,0,0,0,0,0,0,0,0.4858,0.4859,0.487,0.487,0.4871,0.4881,0.4878,0.4887,0.4887,0.4881,0.4887,0.4887,0.4895,0.4896,0.4899,0.4906,0.4907,0.4905,0.4905,0.4905,0.4905,0,0,0,0,0,0,0,0.4857,0.4859,0.487,0.487,0.4871,0.4874,0.4875,0.488,0.4888,0.4881,0.4882,0.4883,0.4895,0.4898,0.4899,0.4907,0.4905,0.4905,0.4906,0.4906,0.4919,0.4919,0,0,0,0,0,0,0.4856,0.4858,0.487,0.487,0.4865,0.4874,0.4875,0.4878,0.4887,0.4889,0.4883,0.4884,0.4897,0.4898,0.49,0.4904,0.4905,0.4906,0.4906,0.4919,0.4919,0.4919,0,0,0,0,0,0,0.4855,0.4856,0.4869,0.4864,0.4866,0.4874,0.4876,0.4878,0.488,0.4889,0.4891,0.4884,0.4897,0.4899,0.4904,0.4905,0.4906,0.4907,0.4919,0.4919,0.4919,0.4912,0,0,0,0,0,0,0.4855,0.4856,0.4856,0.4864,0.4867,0.4872,0.4876,0.4878,0.4881,0.4882,0.489,0.4892,0.4897,0.4903,0.4905,0.4905,0.4907,0.4919,0.4919,0.4919,0.4912,0.4912,0.4912,0,0,0,0,0,0.4854,0.4854,0.4856,0.4858,0.4867,0.4872,0.4874,0.4879,0.4881,0.4882,0.4888,0.4892,0.4904,0.4904,0.4905,0.4906,0.4919,0.4919,0.4919,0.4912,0.4912,0.4912,0,0,0,0,0,0,0.4846,0.4855,0.4858,0.486,0.4865,0.4874,0.4875,0.4878,0.4884,0.4884,0.4892,0.4894,0.4899,0.4903,0.4902,0.491,0.4912,0.4913,0.4907,0.4906,0.4906,0.4905,0.4907,0,0,0,0,0,0.4844,0.4848,0.4856,0.4857,0.4859,0.4867,0.4869,0.4873,0.4879,0.4882,0.4888,0.4894,0.49,0.4903,0.4909,0.4913,0.4916,0.4915,0.4915,0.4914,0.4914,0.4919,0.4919,0.4919,0.4919,0.4919,0,0,0.4841,0.4847,0.4848,0.4856,0.486,0.4864,0.4868,0.4872,0.4876,0.4883,0.4888,0.4893,0.4901,0.4906,0.4908,0.491,0.4915,0.4914,0.4914,0.4914,0.4919,0.4919,0.4919,0.4919,0.4919,0.4919,0,0,0.4838,0.4842,0.4844,0.4848,0.4855,0.486,0.4861,0.4869,0.4873,0.4878,0.4884,0.4889,0.4898,0.4904,0.4908,0.4908,0.4913,0.491,0.4908,0.4912,0.4912,0.4912,0.4913,0.4914,0.491,0.491,0.491,0,0.4833,0.4838,0.4844,0.4848,0.4852,0.4858,0.4861,0.4866,0.4875,0.4878,0.4879,0.4892,0.4897,0.4904,0.4905,0.4908,0.491,0.4909,0.4911,0.4912,0.4912,0.4913,0.4914,0.491,0.491,0.491,0.491,0,0.4833,0.4837,0.4838,0.4846,0.485,0.4853,0.4861,0.4864,0.4869,0.4874,0.4881,0.4888,0.4896,0.4898,0.4902,0.4906,0.4907,0.491,0.4912,0.4911,0.4913,0.4913,0.4909,0.491,0.491,0.491,0,0,0.4824,0.4836,0.4836,0.484,0.4849,0.4853,0.4858,0.4865,0.4868,0.4875,0.4879,0.4888,0.4891,0.4896,0.4901,0.4904,0.4906,0.4907,0.4907,0.4907,0.4913,0.4911,0.4912,0.4909,0.4909,0.4909,0.4913,0,0.4822,0.4829,0.4835,0.4841,0.4845,0.4852,0.4857,0.4863,0.4869,0.4875,0.4881,0.4887,0.489,0.4894,0.4898,0.4905,0.4907,0.4905,0.4915,0.4915,0.4913,0.4912,0.491,0.4913,0.4913,0.4913,0.4914,0,0.482,0.4826,0.4832,0.4841,0.4844,0.4847,0.4855,0.486,0.4869,0.4873,0.4879,0.4884,0.4891,0.4893,0.4903,0.4902,0.4906,0.4911,0.4911,0.4913,0.4914,0.4914,0.4914,0.4914,0.4914,0.4914,0.4914,0,0.4813,0.4823,0.4828,0.4831,0.4843,0.4845,0.485,0.4859,0.4863,0.4871,0.4875,0.4883,0.4888,0.4895,0.4904,0.4904,0.4914,0.4916,0.4918,0.4918,0.492,0.492,0.492,0.4922,0.4922,0.4922,0.4922,0,0.4811,0.4814,0.4825,0.4828,0.4833,0.4841,0.4846,0.4852,0.486,0.4865,0.4873,0.4878,0.4889,0.4896,0.4903,0.4911,0.4913,0.4918,0.4919,0.4917,0.4917,0.492,0.4921,0.4922,0.4922,0.4922,0.4922,0,0.4804,0.4811,0.4817,0.4828,0.4831,0.4834,0.4844,0.4848,0.4855,0.4862,0.4864,0.4875,0.4884,0.4893,0.4905,0.491,0.4918,0.4921,0.4915,0.4916,0.4919,0.4919,0.4922,0.4924,0.4924,0.4924,0.4924,0,0.4801,0.4804,0.4815,0.4819,0.4824,0.483,0.4835,0.4844,0.4849,0.486,0.4864,0.4873,0.4881,0.4895,0.4905,0.4915,0.4918,0.4919,0.492,0.4918,0.4919,0.4919,0.492,0.4918,0.4918,0.4918,0.4918,0,0.4797,0.4801,0.4807,0.4815,0.4821,0.4828,0.4835,0.4838,0.4849,0.4855,0.4864,0.487,0.4883,0.4893,0.4904,0.4911,0.4917,0.4918,0.4919,0.4917,0.4914,0.4917,0.4915,0.4918,0.4918,0.4918,0.4918,0.4918,0.4793,0.4796,0.4805,0.4812,0.4819,0.4826,0.4831,0.4838,0.4846,0.4856,0.4862,0.4871,0.4882,0.4898,0.4905,0.4914,0.4915,0.4917,0.4917,0.4918,0.4918,0.4913,0.4916,0.4916,0.4916,0.4916,0.4916,0,0.4789,0.4795,0.4802,0.4812,0.4819,0.4823,0.4832,0.4837,0.4845,0.4854,0.4862,0.4874,0.4884,0.4895,0.4907,0.4912,0.4915,0.4915,0.4914,0.4916,0.4915,0.4913,0.4912,0.4912,0.4912,0.4912,0.4912,0.4912,0.4788,0.4794,0.48,0.481,0.4817,0.4826,0.4831,0.4838,0.4846,0.4858,0.4866,0.4873,0.4884,0.4897,0.4907,0.491,0.4914,0.4913,0.4917,0.4916,0.4916,0.4916,0.4915,0.4914,0.4914,0.4918,0.4918,0.4918]},{"header":{"parameterUnit":"m.s-1","parameterCategory":1,"la1":30.2991,"la2":30.254,"lo1":-89.0895,"lo2":-89.0444,"dy":0.0017,"dx":0.0017,"nx":28,"ny":28,"refTime":"2026-02-09T03:00:00:Z","depth":0,"parameterNumber":3,"parameterNumberName":"V-component_of_WINDS"},"data":[0,0,0,0,0,0,0,0,0,0,0,0,0,0,0,0,0,0,0,0,0,0,0,0,0,0,0,0,0,0,0,0,0,0,0,0,0,0,0,0,0,0,0,0,0,0,0,0,0,0,0,0,0,0,0,0,0,0,2.6405,2.6405,0,2.6429,2.6429,2.643,2.6447,2.6447,2.6447,2.6447,2.6468,2.6468,2.6469,0,0,0,0,0,0,0,0,0,0,0,0,0,2.637,2.6371,2.6405,2.6405,2.6405,2.6429,2.6429,2.643,2.6447,2.6447,2.6447,2.6447,2.6468,2.6468,2.6469,0,0,0,0,0,0,0,0,0,0,0,0,0,2.6389,2.6371,2.6404,2.6417,2.6418,2.6429,2.6429,2.643,2.6446,2.6447,2.6447,2.6447,2.6468,2.6468,2.6469,2.6469,0,0,2.6471,2.6471,0,0,0,0,0,0,0,0,2.6388,2.639,2.6414,2.6416,2.6417,2.6435,2.6425,2.6443,2.6446,2.6435,2.6447,2.6447,2.6457,2.6458,2.6462,2.647,2.6471,2.6471,2.6471,2.6472,2.6472,0,0,0,0,0,0,0,2.6387,2.6389,2.6414,2.6415,2.6417,2.642,2.6423,2.6428,2.6444,2.6436,2.6438,2.6441,2.6457,2.6461,2.6463,2.6471,2.6471,2.6471,2.6472,2.6472,2.6482,2.6482,0,0,0,0,0,0,2.6384,2.6388,2.6413,2.6415,2.6403,2.6421,2.6424,2.6429,2.6444,2.6447,2.644,2.6441,2.646,2.6462,2.6463,2.6466,2.6472,2.6472,2.6472,2.6482,2.6482,2.6482,0,0,0,0,0,0,2.6383,2.6386,2.6412,2.6402,2.6406,2.6421,2.6427,2.6429,2.6434,2.6448,2.645,2.6442,2.646,2.6463,2.6468,2.6467,2.6472,2.6473,2.6482,2.6482,2.6482,2.647,0,0,0,0,0,0,2.6382,2.6386,2.6386,2.6402,2.6406,2.6417,2.6427,2.643,2.6435,2.6437,2.645,2.6452,2.6461,2.6467,2.6469,2.6468,2.6474,2.6482,2.6482,2.6482,2.647,2.6469,2.6468,0,0,0,0,0,2.6381,2.638,2.6386,2.6389,2.6407,2.6417,2.6419,2.6431,2.6435,2.6435,2.6445,2.6451,2.6467,2.6468,2.647,2.6469,2.6482,2.6482,2.6482,2.6471,2.6469,2.6468,0,0,0,0,0,0,2.6361,2.6382,2.6389,2.6393,2.6404,2.642,2.642,2.6429,2.6436,2.6437,2.645,2.6453,2.6457,2.6463,2.6464,2.6471,2.6476,2.6476,2.6466,2.6465,2.6464,2.6463,2.6474,0,0,0,0,0,2.6358,2.6365,2.6383,2.6385,2.639,2.6405,2.6409,2.6418,2.6428,2.6432,2.6441,2.645,2.6458,2.6462,2.6469,2.6472,2.6475,2.6472,2.6471,2.647,2.647,2.6474,2.6473,2.6481,2.6481,2.6481,0,0,2.635,2.6363,2.6366,2.6382,2.639,2.6398,2.6408,2.6414,2.6419,2.6432,2.6439,2.6447,2.6457,2.6462,2.6465,2.6467,2.6469,2.647,2.6469,2.6469,2.6474,2.6473,2.6472,2.6481,2.6481,2.6481,0,0,2.634,2.635,2.6354,2.6364,2.6378,2.6388,2.6389,2.6405,2.6411,2.6418,2.6429,2.6435,2.6446,2.6454,2.646,2.6456,2.6463,2.6458,2.6452,2.6456,2.6455,2.6455,2.6455,2.6454,2.6458,2.6458,2.6458,0,2.6328,2.634,2.6355,2.6362,2.6369,2.6383,2.6388,2.6396,2.641,2.6415,2.6418,2.6435,2.6443,2.6451,2.6451,2.6454,2.6456,2.6456,2.6454,2.6454,2.6454,2.6454,2.6454,2.6457,2.6457,2.6457,2.6457,0,2.6326,2.6334,2.6336,2.6353,2.636,2.6365,2.638,2.6386,2.6394,2.6404,2.6412,2.6423,2.6434,2.6436,2.6443,2.6446,2.6447,2.6452,2.6457,2.6452,2.6453,2.6453,2.6456,2.6457,2.6457,2.6457,0,0,2.6302,2.633,2.633,2.6339,2.6357,2.6363,2.637,2.6382,2.6387,2.6398,2.6404,2.6415,2.6421,2.6427,2.6435,2.6439,2.6437,2.6444,2.6444,2.6443,2.6442,2.6438,2.6438,2.6442,2.6442,2.6442,2.6441,0,2.6295,2.631,2.6324,2.6333,2.6342,2.6357,2.6363,2.6374,2.6384,2.6392,2.6403,2.6411,2.6417,2.6422,2.6426,2.6436,2.6437,2.6436,2.6448,2.6448,2.6445,2.6438,2.6433,2.6432,2.6441,2.6441,2.6441,0,2.6289,2.6301,2.6312,2.6332,2.6336,2.6341,2.6355,2.6363,2.6376,2.6383,2.6392,2.6402,2.641,2.6415,2.6426,2.6426,2.6431,2.6438,2.6438,2.6439,2.6444,2.644,2.6432,2.6432,2.6441,2.6441,2.6441,0,2.6272,2.6291,2.6301,2.6308,2.633,2.6334,2.6344,2.6358,2.6365,2.6377,2.6382,2.6394,2.64,2.6409,2.6422,2.6424,2.6433,2.6438,2.6439,2.6439,2.644,2.6439,2.6433,2.6442,2.6442,2.6442,2.6442,0,2.6263,2.6269,2.6294,2.63,2.6307,2.6324,2.6331,2.6341,2.6355,2.6363,2.6376,2.6383,2.6399,2.6408,2.6418,2.6427,2.6429,2.6436,2.6438,2.6435,2.6434,2.6438,2.6439,2.6442,2.6442,2.6442,2.6442,0,2.6245,2.6262,2.6274,2.6296,2.6301,2.6306,2.6325,2.6331,2.6343,2.6353,2.6356,2.6374,2.6385,2.64,2.6415,2.6422,2.643,2.6433,2.6426,2.6427,2.6428,2.6428,2.6424,2.6425,2.6433,2.6433,2.6433,0,2.6239,2.6244,2.6268,2.6275,2.6285,2.6296,2.6305,2.6322,2.633,2.6348,2.6352,2.6365,2.6377,2.6395,2.6408,2.6421,2.6425,2.6423,2.6427,2.6424,2.6426,2.6426,2.6427,2.6422,2.6422,2.6422,2.6422,0,2.6225,2.6234,2.6247,2.6263,2.6273,2.6286,2.63,2.6305,2.6325,2.6333,2.6347,2.6356,2.6373,2.6386,2.6401,2.641,2.6419,2.6421,2.6422,2.6418,2.6414,2.6417,2.6424,2.642,2.642,2.6421,2.6421,2.6421,2.6213,2.622,2.6239,2.6253,2.6265,2.6278,2.6286,2.63,2.6312,2.6329,2.6338,2.6352,2.6367,2.6388,2.6397,2.6408,2.6411,2.6412,2.6412,2.6413,2.6412,2.6412,2.641,2.641,2.6411,2.6411,2.6411,0,2.6202,2.6215,2.6228,2.6248,2.626,2.627,2.6286,2.6294,2.6307,2.6321,2.6333,2.6349,2.6363,2.6379,2.6394,2.6399,2.6404,2.6402,2.6402,2.6404,2.6408,2.6406,2.6398,2.6398,2.6398,2.6398,2.6398,2.6398,2.6197,2.6209,2.6221,2.624,2.6253,2.6268,2.6276,2.6289,2.6301,2.6319,2.6331,2.6343,2.6358,2.6374,2.6387,2.6392,2.6397,2.6394,2.64,2.6403,2.6404,2.6405,2.6403,2.6395,2.6395,2.6396,2.6396,2.6396]}]]